Weather in Osoyoos

Canada     49°01′58″N   119°27′58″W
temp.,
°C
wind,
m/s
gust,
m/s
humid.,
%
clouds,
%
prec.,
mm/h
press.,
hPa
HPBL,
m
17 june, thu
thu1723:00+10ne01570 0.0 102011
02:00+9n22610 0.0 102119
05:00+8n22648 0.0 102117
08:00+15nne114577 0.0 1019353
11:00+22sse11290 0.0 10181267
14:00+25s32223 0.0 10151982
17:00+25s33225 0.0 10132051
20:00+21sse22345 0.0 101316
18 june, fri
fri1823:00+14n22474 0.0 101629
02:00+12n22492 0.0 101623
05:00+11n22504 0.0 101623
08:00+18nne11351 0.0 1015371
11:00+24s2225100 0.0 10131209
14:00+27sse3220100 0.0 10101730
17:00+28s3319100 0.0 10082074
20:00+22w1134100 0.0 100811
19 june, sat
sat1923:00+16nnw354683 0.0 101083
02:00+13n3455100 0.0 101169
05:00+12n3464100 0.0 101282
08:00+18n3447100 0.0 1011416
11:00+23n23285 0.0 10101317
14:00+28ne132592 0.0 10072676
17:00+25n453397 0.0 10071907
20:00+22nnw47409 0.0 1008369
20 june, sun
sun2023:00+15n34634 0.0 101165
02:00+13n367212 0.0 1014161
05:00+13n367015 0.0 1015169
08:00+17n57470 0.0 10171144
11:00+21nnw45360 0.0 10171595
14:00+26nw33285 0.0 10152191
17:00+28ne112690 0.0 10132522
20:00+23e1141100 0.0 101313
21 june, mon
mon2123:00+17n2253100 0.0 101421
02:00+16nne1156100 0.0 101511
05:00+13n116592 0.0 101512
08:00+21n1144100 0.0 1013394
11:00+26s23295 0.0 10111386
14:00+30sse32231 0.0 10082133
17:00+30s32213 0.0 10052103
20:00+26s22315 0.0 100520